sat.trackr.live / text

‹ back to catalog

STARLINK-1777

NORAD 47122 · 2020-088A

PAYLOAD ACTIVE UNKNOWN

§ Identity

Operator
Country
US
Launch date
2020-11-25
Launch site
AFETR
Launch vehicle
Mass (kg)
RCS (m²)

Purposes: comms

External: N2YO · Heavens-Above · Gunter

§ Orbital elements

Epoch: 2026-09-19T14:07:02.902656Z

Period
89.56 min
Inclination
53.0337°
Eccentricity
0.0003493
Mean motion
16.07948467 rev/d
Perigee alt
250.2 km
Apogee alt
254.8 km
Semi-major
6,630.6 km
B*
7.6115e-4
RAAN
42.2849°
Arg perigee
355.3325°
Mean anomaly
4.7674°
Rev number
32,258

§ Raw data

STARLINK-17771 47122U 20088A   26262.58822804  .00642590  22122-3  76115-3 0  99902 47122  53.0337  42.2849 0003493 355.3325   4.7674 16.07948467322583

JSON: /api/v1/satellites/47122 · /tle

For live sub-satellite position, see the globe view (requires WebGL).

§ Visibility from observer

Set your observer location to see the next 7 days of passes ≥ 10°. The values pass through the URL so the page stays shareable.

No JS? Fill the form by hand. The geolocation button needs JavaScript.